,,Stat5,,Stat1,,Stat2,,Stat3,,Stat4,,Wind1,,Wind1,
time,status,PA1M_AVG,status,PR1M_SUM,status,RH1M_AVG,status,SR1M_AVG,status,TA1M_AVG,status,W1dAve1m,status,W1sAve1m,
2002-11-29, 00:00:00,VALID,921.082,VALID,0,VALID,98.8863,VALID,0,VALID,19.7636,VALID,12,VALID,0.558799,
2002-11-29, 00:01:00,VALID,921.08,VALID,0,VALID,98.8901,VALID,-0.0169808,VALID,19.7534,VALID,20,VALID,0.770559,
2002-11-29, 00:02:00,VALID,921.079,VALID,0,VALID,98.8202,VALID,0.0169808,VALID,19.7442,VALID,5,VALID,0.893864,
2002-11-29, 00:03:00,VALID,921.092,VALID,0,VALID,98.7973,VALID,0,VALID,19.7211,VALID,10,VALID,0.73902,
2002-11-29, 00:04:00,VALID,921.071,VALID,0,VALID,98.7884,VALID,0,VALID,19.7181,VALID,12,VALID,0.716005,
2002-11-29, 00:05:00,VALID,921.075,VALID,0,VALID,98.7808,VALID,-0.0169808,VALID,19.7054,VALID,12,VALID,0.588867,
2002-11-29, 00:06:00,VALID,921.075,VALID,0,VALID,98.7465,VALID,-0.101885,VALID,19.687,VALID,13,VALID,0.722862,
2002-11-29, 00:07:00,VALID,921.067,VALID,0,VALID,98.735,VALID,-0.0849042,VALID,19.6778,VALID,6,VALID,0.611111,
2002-11-29, 00:08:00,VALID,921.065,VALID,0,VALID,98.6994,VALID,-0.0849042,VALID,19.658,VALID,360,VALID,0.498437,
2002-11-29, 00:09:00,VALID,921.064,VALID,0,VALID,98.6854,VALID,-0.101885,VALID,19.6485,VALID,8,VALID,0.300781,
2002-11-29, 00:10:00,VALID,921.075,VALID,0,VALID,98.6816,VALID,-0.118866,VALID,19.6353,VALID,358,VALID,0.417318,
2002-11-29, 00:11:00,VALID,921.085,VALID,0,VALID,98.6867,VALID,-0.0849042,VALID,19.6294,VALID,9,VALID,0.598741,
2002-11-29, 00:12:00,VALID,921.066,VALID,0,VALID,98.6574,VALID,-0.101885,VALID,19.6262,VALID,8,VALID,0.868215,
2002-11-29, 00:13:00,VALID,921.057,VALID,0,VALID,98.6447,VALID,-0.0679233,VALID,19.5906,VALID,353,VALID,0.644326,
2002-11-29, 00:14:00,VALID,921.059,VALID,0,VALID,98.6447,VALID,-0.0849042,VALID,19.5906,VALID,15,VALID,0.456814,
2002-11-29, 00:15:00,VALID,921.046,VALID,0,VALID,98.6511,VALID,-0.101885,VALID,19.5874,VALID,16,VALID,0.600223,
2002-11-29, 00:16:00,VALID,921.041,VALID,0,VALID,98.6562,VALID,-0.0849042,VALID,19.5742,VALID,357,VALID,0.489926,
2002-11-29, 00:17:00,VALID,921.037,VALID,0,VALID,98.6371,VALID,-0.101885,VALID,19.5613,VALID,2,VALID,0.383814,
2002-11-29, 00:18:00,VALID,921.036,VALID,0,VALID,98.6511,VALID,-0.101885,VALID,19.5417,VALID,3,VALID,0.384375,
2002-11-29, 00:19:00,VALID,921.038,VALID,0,VALID,98.6803,VALID,-0.101885,VALID,19.5593,VALID,3,VALID,0.0795641,
2002-11-29, 00:20:00,VALID,921.047,VALID,0,VALID,98.6994,VALID,-0.0849042,VALID,19.5518,VALID,3,VALID,0.0314556,
2002-11-29, 00:21:00,VALID,921.041,VALID,0,VALID,98.7299,VALID,0,VALID,19.5601,VALID,3,VALID,0.00641026,
2002-11-29, 00:22:00,VALID,921.05,VALID,0,VALID,98.7579,VALID,0,VALID,19.5635,VALID,3,VALID,0,
2002-11-29, 00:23:00,VALID,921.042,VALID,0,VALID,98.7503,VALID,0,VALID,19.5538,VALID,3,VALID,0,
2002-11-29, 00:24:00,VALID,921.038,VALID,0,VALID,98.7655,VALID,-0.0339617,VALID,19.5638,VALID,3,VALID,0,
2002-11-29, 00:25:00,VALID,921.034,VALID,0,VALID,98.7833,VALID,0,VALID,19.5568,VALID,3,VALID,0,
2002-11-29, 00:26:00,VALID,921.04,VALID,0,VALID,98.7833,VALID,0,VALID,19.5635,VALID,3,VALID,0,
2002-11-29, 00:27:00,VALID,921.033,VALID,0,VALID,98.7554,VALID,0,VALID,19.5504,VALID,3,VALID,0,
2002-11-29, 00:28:00,VALID,921.017,VALID,0,VALID,98.7541,VALID,0,VALID,19.5476,VALID,3,VALID,0,
2002-11-29, 00:29:00,VALID,921.006,VALID,0,VALID,98.7579,VALID,0,VALID,19.5245,VALID,2,VALID,0.26912,
2002-11-29, 00:30:00,VALID,920.996,VALID,0,VALID,98.7655,VALID,0,VALID,19.5347,VALID,10,VALID,0.534071,
2002-11-29, 00:31:00,VALID,920.989,VALID,0,VALID,98.8037,VALID,-0.0169808,VALID,19.5315,VALID,23,VALID,0.527449,
2002-11-29, 00:32:00,VALID,920.976,VALID,0,VALID,98.8177,VALID,0,VALID,19.5245,VALID,15,VALID,0.515191,
2002-11-29, 00:33:00,VALID,920.986,VALID,0,VALID,98.8329,VALID,0.0169808,VALID,19.5407,VALID,17,VALID,0.822574,
2002-11-29, 00:34:00,VALID,920.993,VALID,0,VALID,98.8329,VALID,0.0169808,VALID,19.5444,VALID,20,VALID,0.612331,
2002-11-29, 00:35:00,VALID,920.991,VALID,0,VALID,98.8393,VALID,-0.0169808,VALID,19.531,VALID,26,VALID,0.688453,
2002-11-29, 00:36:00,VALID,921.014,VALID,0,VALID,98.8151,VALID,0.0169808,VALID,19.5312,VALID,27,VALID,0.392773,
2002-11-29, 00:37:00,VALID,921.018,VALID,0,VALID,98.8164,VALID,0,VALID,19.528,VALID,27,VALID,0.315173,
2002-11-29, 00:38:00,VALID,921.01,VALID,0,VALID,98.8126,VALID,-0.0169808,VALID,19.5183,VALID,13,VALID,0.754223,
2002-11-29, 00:39:00,VALID,921.011,VALID,0,VALID,98.824,VALID,0.0169808,VALID,19.5116,VALID,14,VALID,0.826758,
2002-11-29, 00:40:00,VALID,921.012,VALID,0,VALID,98.8088,VALID,0.0169808,VALID,19.5081,VALID,19,VALID,1.00535,
2002-11-29, 00:41:00,VALID,920.994,VALID,0,VALID,98.7744,VALID,0,VALID,19.4825,VALID,20,VALID,1.04375,
2002-11-29, 00:42:00,VALID,921.002,VALID,0,VALID,98.7465,VALID,0,VALID,19.4537,VALID,12,VALID,0.702123,
2002-11-29, 00:43:00,VALID,921.008,VALID,0,VALID,98.7541,VALID,-0.0169808,VALID,19.4274,VALID,15,VALID,0.8648,
2002-11-29, 00:44:00,VALID,921.006,VALID,0,VALID,98.7782,VALID,0.0169808,VALID,19.4052,VALID,9,VALID,0.695946,
2002-11-29, 00:45:00,VALID,921.009,VALID,0,VALID,98.7871,VALID,0,VALID,19.4022,VALID,13,VALID,0.719151,
2002-11-29, 00:46:00,VALID,920.995,VALID,0,VALID,98.7948,VALID,-0.0169808,VALID,19.3791,VALID,22,VALID,0.849918,
2002-11-29, 00:47:00,VALID,921.001,VALID,0,VALID,98.777,VALID,0,VALID,19.36,VALID,14,VALID,0.46176,
2002-11-29, 00:48:00,VALID,920.996,VALID,0,VALID,98.7719,VALID,0,VALID,19.3441,VALID,12,VALID,0.478674,
2002-11-29, 00:49:00,VALID,920.984,VALID,0,VALID,98.7795,VALID,0,VALID,19.318,VALID,12,VALID,0.508247,
2002-11-29, 00:50:00,VALID,920.983,VALID,0,VALID,98.8049,VALID,0.0169808,VALID,19.3083,VALID,12,VALID,0.196579,
2002-11-29, 00:51:00,VALID,920.979,VALID,0,VALID,98.7846,VALID,0.0169808,VALID,19.2887,VALID,12,VALID,0.372944,
2002-11-29, 00:52:00,VALID,920.969,VALID,0,VALID,98.7465,VALID,0,VALID,19.2564,VALID,12,VALID,0.386218,
2002-11-29, 00:53:00,VALID,920.964,VALID,0,VALID,98.7439,VALID,0,VALID,19.231,VALID,12,VALID,0.487981,
2002-11-29, 00:54:00,VALID,920.963,VALID,0,VALID,98.7757,VALID,0.0169808,VALID,19.2012,VALID,12,VALID,0.388302,
2002-11-29, 00:55:00,VALID,920.954,VALID,0,VALID,98.8316,VALID,0.0339617,VALID,19.1918,VALID,13,VALID,0.458059,
2002-11-29, 00:56:00,VALID,920.967,VALID,0,VALID,98.8812,VALID,0,VALID,19.1915,VALID,14,VALID,0.389223,
2002-11-29, 00:57:00,VALID,920.95,VALID,0,VALID,98.9385,VALID,0.0339617,VALID,19.2079,VALID,15,VALID,0.296474,
2002-11-29, 00:58:00,VALID,920.962,VALID,0,VALID,98.9728,VALID,0,VALID,19.2213,VALID,15,VALID,0.178539,
2002-11-29, 00:59:00,VALID,920.953,VALID,0,VALID,98.9881,VALID,0.0169808,VALID,19.2243,VALID,15,VALID,0.219984,
2002-11-29, 01:00:00,VALID,920.955,VALID,0,VALID,99.0173,VALID,0,VALID,19.2308,VALID,15,VALID,0.157517,
2002-11-29, 01:01:00,VALID,920.961,VALID,0,VALID,99.0427,VALID,0.0169808,VALID,19.2343,VALID,15,VALID,0.21441,
2002-11-29, 01:02:00,VALID,920.958,VALID,0,VALID,99.0491,VALID,0,VALID,19.2407,VALID,15,VALID,0.21072,
2002-11-29, 01:03:00,VALID,920.963,VALID,0,VALID,99.0275,VALID,0.0169808,VALID,19.2278,VALID,15,VALID,0.137952,
2002-11-29, 01:04:00,VALID,920.964,VALID,0,VALID,99.0262,VALID,0,VALID,19.198,VALID,15,VALID,0.252673,
2002-11-29, 01:05:00,VALID,920.958,VALID,0,VALID,99.0389,VALID,0,VALID,19.2057,VALID,15,VALID,0.63737,
2002-11-29, 01:06:00,VALID,920.942,VALID,0,VALID,99.0364,VALID,-0.0849042,VALID,19.1937,VALID,16,VALID,1.0846,
2002-11-29, 01:07:00,VALID,920.943,VALID,0,VALID,99.03,VALID,-0.101885,VALID,19.1843,VALID,8,VALID,1.00905,
2002-11-29, 01:08:00,VALID,920.95,VALID,0,VALID,99.0287,VALID,-0.0509425,VALID,19.1778,VALID,10,VALID,0.739183,
2002-11-29, 01:09:00,VALID,920.949,VALID,0,VALID,99.0313,VALID,-0.0849042,VALID,19.1579,VALID,12,VALID,0.581055,
2002-11-29, 01:10:00,VALID,920.955,VALID,0,VALID,98.997,VALID,-0.101885,VALID,19.1487,VALID,9,VALID,0.780839,
2002-11-29, 01:11:00,VALID,920.96,VALID,0,VALID,99.0071,VALID,-0.101885,VALID,19.1286,VALID,5,VALID,0.823191,
2002-11-29, 01:12:00,VALID,920.956,VALID,0,VALID,99.0275,VALID,-0.0849042,VALID,19.1294,VALID,357,VALID,0.60016,
2002-11-29, 01:13:00,VALID,920.958,VALID,0,VALID,99.0872,VALID,-0.101885,VALID,19.1485,VALID,349,VALID,0.683494,
2002-11-29, 01:14:00,VALID,920.953,VALID,0,VALID,99.1,VALID,-0.101885,VALID,19.1617,VALID,351,VALID,0.625601,
2002-11-29, 01:15:00,VALID,920.942,VALID,0,VALID,99.1203,VALID,-0.101885,VALID,19.1646,VALID,4,VALID,0.680607,
2002-11-29, 01:16:00,VALID,920.925,VALID,0,VALID,99.1368,VALID,-0.0679233,VALID,19.1642,VALID,357,VALID,0.596484,
2002-11-29, 01:17:00,VALID,920.929,VALID,0,VALID,99.1534,VALID,-0.101885,VALID,19.2039,VALID,359,VALID,0.439019,
2002-11-29, 01:18:00,VALID,920.901,VALID,0,VALID,99.1712,VALID,-0.0849042,VALID,19.2004,VALID,352,VALID,0.310981,
2002-11-29, 01:19:00,VALID,920.891,VALID,0,VALID,99.1763,VALID,-0.101885,VALID,19.2166,VALID,356,VALID,0.518581,
2002-11-29, 01:20:00,VALID,920.867,VALID,0,VALID,99.1991,VALID,-0.0849042,VALID,19.2322,VALID,7,VALID,0.892475,
2002-11-29, 01:21:00,VALID,920.86,VALID,0,VALID,99.2042,VALID,0.0339617,VALID,19.2536,VALID,13,VALID,0.823785,
2002-11-29, 01:22:00,VALID,920.868,VALID,0,VALID,99.203,VALID,0.0339617,VALID,19.2499,VALID,9,VALID,0.937922,
2002-11-29, 01:23:00,VALID,920.867,VALID,0,VALID,99.1813,VALID,0,VALID,19.241,VALID,3,VALID,0.712023,
2002-11-29, 01:24:00,VALID,920.867,VALID,0,VALID,99.1763,VALID,0,VALID,19.2375,VALID,10,VALID,0.791941,
2002-11-29, 01:25:00,VALID,920.855,VALID,0,VALID,99.1775,VALID,0,VALID,19.2541,VALID,359,VALID,0.816723,
2002-11-29, 01:26:00,VALID,920.835,VALID,0,VALID,99.1763,VALID,0.0339617,VALID,19.2477,VALID,13,VALID,1.04516,
2002-11-29, 01:27:00,VALID,920.821,VALID,0,VALID,99.175,VALID,0,VALID,19.2412,VALID,14,VALID,0.810156,
2002-11-29, 01:28:00,VALID,920.812,VALID,0,VALID,99.1839,VALID,0,VALID,19.2345,VALID,2,VALID,1.10095,
2002-11-29, 01:29:00,VALID,920.801,VALID,0,VALID,99.1991,VALID,0.0169808,VALID,19.2338,VALID,7,VALID,1.02006,
2002-11-29, 01:30:00,VALID,920.784,VALID,0,VALID,99.2093,VALID,0.0169808,VALID,19.2345,VALID,16,VALID,0.944922,
2002-11-29, 01:31:00,VALID,920.754,VALID,0,VALID,99.2004,VALID,0.0339617,VALID,19.2209,VALID,23,VALID,0.801398,
2002-11-29, 01:32:00,VALID,920.747,VALID,0,VALID,99.2055,VALID,0,VALID,19.2156,VALID,16,VALID,0.579241,
2002-11-29, 01:33:00,VALID,920.714,VALID,0,VALID,99.1966,VALID,0.0339617,VALID,19.2047,VALID,21,VALID,0.623998,
2002-11-29, 01:34:00,VALID,920.702,VALID,0,VALID,99.1928,VALID,0.0169808,VALID,19.1953,VALID,24,VALID,0.700738,
2002-11-29, 01:35:00,VALID,920.689,VALID,0,VALID,99.1801,VALID,0,VALID,19.1699,VALID,19,VALID,0.602618,
2002-11-29, 01:36:00,VALID,920.685,VALID,0,VALID,99.1775,VALID,-0.101885,VALID,19.1716,VALID,3,VALID,0.785056,
2002-11-29, 01:37:00,VALID,920.677,VALID,0,VALID,99.1775,VALID,-0.0679233,VALID,19.1453,VALID,5,VALID,0.696546,
2002-11-29, 01:38:00,VALID,920.673,VALID,0,VALID,99.1788,VALID,-0.0679233,VALID,19.1328,VALID,359,VALID,0.648849,
2002-11-29, 01:39:00,VALID,920.67,VALID,0,VALID,99.1699,VALID,-0.101885,VALID,19.1231,VALID,359,VALID,0.654139,
2002-11-29, 01:40:00,VALID,920.656,VALID,0,VALID,99.1724,VALID,-0.0679233,VALID,19.1065,VALID,4,VALID,0.671875,
2002-11-29, 01:41:00,VALID,920.652,VALID,0,VALID,99.1648,VALID,-0.0849042,VALID,19.0839,VALID,2,VALID,0.552365,
2002-11-29, 01:42:00,VALID,920.647,VALID,0,VALID,99.175,VALID,-0.0679233,VALID,19.0677,VALID,352,VALID,0.513158,
2002-11-29, 01:43:00,VALID,920.638,VALID,0,VALID,99.203,VALID,-0.101885,VALID,19.0675,VALID,329,VALID,0.471955,
2002-11-29, 01:44:00,VALID,920.648,VALID,0,VALID,99.2093,VALID,-0.0679233,VALID,19.0747,VALID,328,VALID,0.183494,
2002-11-29, 01:45:00,VALID,920.639,VALID,0,VALID,99.2386,VALID,-0.101885,VALID,19.1104,VALID,328,VALID,0.28484,
2002-11-29, 01:46:00,VALID,920.636,VALID,0,VALID,99.2627,VALID,-0.0849042,VALID,19.1229,VALID,331,VALID,0.295641,
2002-11-29, 01:47:00,VALID,920.61,VALID,0,VALID,99.2678,VALID,-0.0509425,VALID,19.1097,VALID,333,VALID,0.180489,
2002-11-29, 01:48:00,VALID,920.619,VALID,0,VALID,99.2449,VALID,-0.101885,VALID,19.0901,VALID,348,VALID,0.419872,
2002-11-29, 01:49:00,VALID,920.598,VALID,0,VALID,99.2576,VALID,-0.0509425,VALID,19.1033,VALID,327,VALID,0.501608,
2002-11-29, 01:50:00,VALID,920.588,VALID,0,VALID,99.2653,VALID,-0.0679233,VALID,19.1033,VALID,321,VALID,0.0205592,
2002-11-29, 01:51:00,VALID,920.585,VALID,0,VALID,99.2437,VALID,-0.0509425,VALID,19.0777,VALID,321,VALID,0,
2002-11-29, 01:52:00,VALID,920.566,VALID,0,VALID,99.2169,VALID,-0.101885,VALID,19.0287,VALID,321,VALID,0,
2002-11-29, 01:53:00,VALID,920.547,VALID,0,VALID,99.2055,VALID,-0.0679233,VALID,19.016,VALID,321,VALID,0,
2002-11-29, 01:54:00,VALID,920.536,VALID,0,VALID,99.2157,VALID,-0.0849042,VALID,19.0193,VALID,321,VALID,0.0664063,
2002-11-29, 01:55:00,VALID,920.538,VALID,0,VALID,99.2373,VALID,-0.0509425,VALID,19.0391,VALID,321,VALID,0.0997122,
2002-11-29, 01:56:00,VALID,920.525,VALID,0,VALID,99.2525,VALID,-0.0679233,VALID,19.0387,VALID,321,VALID,0.0327691,
2002-11-29, 01:57:00,VALID,920.527,VALID,0,VALID,99.2525,VALID,-0.0509425,VALID,19.0262,VALID,321,VALID,0.0107143,
2002-11-29, 01:58:00,VALID,920.512,VALID,0,VALID,99.2195,VALID,-0.0509425,VALID,18.9805,VALID,321,VALID,0,
2002-11-29, 01:59:00,VALID,920.517,VALID,0,VALID,99.1941,VALID,-0.101885,VALID,18.9325,VALID,321,VALID,0.00120192,
2002-11-29, 02:00:00,VALID,920.516,VALID,0,VALID,99.1267,VALID,-0.101885,VALID,18.8712,VALID,321,VALID,0,
2002-11-29, 02:01:00,VALID,920.507,VALID,0,VALID,99.1254,VALID,-0.0849042,VALID,18.8322,VALID,321,VALID,0,
2002-11-29, 02:02:00,VALID,920.502,VALID,0,VALID,99.1457,VALID,-0.101885,VALID,18.8162,VALID,321,VALID,0,
2002-11-29, 02:03:00,VALID,920.493,VALID,0,VALID,99.1546,VALID,-0.101885,VALID,18.8162,VALID,321,VALID,0,
2002-11-29, 02:04:00,VALID,920.485,VALID,0,VALID,99.1546,VALID,-0.101885,VALID,18.7807,VALID,321,VALID,0,
2002-11-29, 02:05:00,VALID,920.468,VALID,0,VALID,99.0491,VALID,-0.0679233,VALID,18.7288,VALID,321,VALID,0,
2002-11-29, 02:06:00,VALID,920.462,VALID,0,VALID,98.9512,VALID,0.0509425,VALID,18.6141,VALID,321,VALID,0,
2002-11-29, 02:07:00,VALID,920.48,VALID,0,VALID,98.8978,VALID,0.0169808,VALID,18.5433,VALID,321,VALID,0.0431641,
2002-11-29, 02:08:00,VALID,920.468,VALID,0,VALID,99.0491,VALID,0.0169808,VALID,18.547,VALID,313,VALID,0.312717,
2002-11-29, 02:09:00,VALID,920.472,VALID,0,VALID,99.2106,VALID,0.0169808,VALID,18.6344,VALID,292,VALID,0.334201,
2002-11-29, 02:10:00,VALID,920.491,VALID,0,VALID,99.2487,VALID,0.0339617,VALID,18.6533,VALID,292,VALID,0.302365,
2002-11-29, 02:11:00,VALID,920.488,VALID,0,VALID,99.3034,VALID,0.0169808,VALID,18.7341,VALID,292,VALID,0.288857,
2002-11-29, 02:12:00,VALID,920.489,VALID,0,VALID,99.3683,VALID,0,VALID,18.8218,VALID,292,VALID,0.03125,
2002-11-29, 02:13:00,VALID,920.493,VALID,0,VALID,99.3848,VALID,0.0339617,VALID,18.8476,VALID,292,VALID,0.0390625,
2002-11-29, 02:14:00,VALID,920.485,VALID,0,VALID,99.3924,VALID,0.0169808,VALID,18.8437,VALID,292,VALID,0.0698785,
2002-11-29, 02:15:00,VALID,920.466,VALID,0,VALID,99.4077,VALID,0.0509425,VALID,18.8563,VALID,292,VALID,0.00411184,
2002-11-29, 02:16:00,VALID,920.445,VALID,0,VALID,99.414,VALID,0,VALID,18.8633,VALID,292,VALID,0,
2002-11-29, 02:17:00,VALID,920.428,VALID,0,VALID,99.4039,VALID,0.0169808,VALID,18.8437,VALID,292,VALID,0,
2002-11-29, 02:18:00,VALID,920.407,VALID,0,VALID,99.4064,VALID,0.0169808,VALID,18.8481,VALID,292,VALID,0,
2002-11-29, 02:19:00,VALID,920.388,VALID,0,VALID,99.3899,VALID,0.0169808,VALID,18.8183,VALID,292,VALID,0,
2002-11-29, 02:20:00,VALID,920.368,VALID,0,VALID,99.4077,VALID,0,VALID,18.8245,VALID,292,VALID,0,
2002-11-29, 02:21:00,VALID,920.377,VALID,0,VALID,99.3988,VALID,-0.101885,VALID,18.8061,VALID,292,VALID,0,
2002-11-29, 02:22:00,VALID,920.374,VALID,0,VALID,99.3454,VALID,-0.101885,VALID,18.7062,VALID,292,VALID,0,
2002-11-29, 02:23:00,VALID,920.358,VALID,0,VALID,99.3072,VALID,-0.0679233,VALID,18.6552,VALID,292,VALID,0,
2002-11-29, 02:24:00,VALID,920.356,VALID,0,VALID,99.2602,VALID,-0.101885,VALID,18.568,VALID,292,VALID,0,
2002-11-29, 02:25:00,VALID,920.355,VALID,0,VALID,99.1902,VALID,-0.0849042,VALID,18.4902,VALID,292,VALID,0,
2002-11-29, 02:26:00,VALID,920.346,VALID,0,VALID,99.0338,VALID,-0.0679233,VALID,18.3645,VALID,292,VALID,0.00844595,
2002-11-29, 02:27:00,VALID,920.353,VALID,0,VALID,99.0059,VALID,-0.0679233,VALID,18.2448,VALID,333,VALID,0.194712,
2002-11-29, 02:28:00,VALID,920.355,VALID,0,VALID,99.1,VALID,-0.118866,VALID,18.206,VALID,337,VALID,0.00699013,
2002-11-29, 02:29:00,VALID,920.341,VALID,0,VALID,99.2437,VALID,-0.0849042,VALID,18.2252,VALID,337,VALID,0,
2002-11-29, 02:30:00,VALID,920.331,VALID,0,VALID,99.2958,VALID,-0.0509425,VALID,18.2445,VALID,337,VALID,0,
2002-11-29, 02:31:00,VALID,920.308,VALID,0,VALID,99.311,VALID,-0.101885,VALID,18.2547,VALID,337,VALID,0,
2002-11-29, 02:32:00,VALID,920.274,VALID,0,VALID,99.3301,VALID,-0.101885,VALID,18.2415,VALID,337,VALID,0,
2002-11-29, 02:33:00,VALID,920.263,VALID,0,VALID,99.3416,VALID,-0.0849042,VALID,18.2282,VALID,337,VALID,0,
2002-11-29, 02:34:00,VALID,920.251,VALID,0,VALID,99.3556,VALID,-0.0849042,VALID,18.2318,VALID,337,VALID,0,
2002-11-29, 02:35:00,VALID,920.241,VALID,0,VALID,99.3797,VALID,-0.0849042,VALID,18.248,VALID,337,VALID,0,
2002-11-29, 02:36:00,VALID,920.219,VALID,0,VALID,99.3912,VALID,0,VALID,18.2305,VALID,337,VALID,0,
2002-11-29, 02:37:00,VALID,920.201,VALID,0,VALID,99.3823,VALID,0,VALID,18.2275,VALID,337,VALID,0,
2002-11-29, 02:38:00,VALID,920.205,VALID,0,VALID,99.3823,VALID,0.0169808,VALID,18.2339,VALID,337,VALID,0,
2002-11-29, 02:39:00,VALID,920.163,VALID,0,VALID,99.4229,VALID,-0.0169808,VALID,18.2791,VALID,337,VALID,0,
2002-11-29, 02:40:00,VALID,920.147,VALID,0,VALID,99.4496,VALID,0,VALID,18.3147,VALID,337,VALID,0,
2002-11-29, 02:41:00,VALID,920.119,VALID,0,VALID,99.4725,VALID,0.0169808,VALID,18.3668,VALID,337,VALID,0,
2002-11-29, 02:42:00,VALID,920.1,VALID,0,VALID,99.484,VALID,0,VALID,18.3758,VALID,337,VALID,0,
2002-11-29, 02:43:00,VALID,920.066,VALID,0,VALID,99.4954,VALID,-0.0169808,VALID,18.412,VALID,337,VALID,0,
2002-11-29, 02:44:00,VALID,920.026,VALID,0,VALID,99.5132,VALID,0,VALID,18.4605,VALID,337,VALID,0,
2002-11-29, 02:45:00,VALID,919.997,VALID,0,VALID,99.5234,VALID,0,VALID,18.4898,VALID,337,VALID,0,
2002-11-29, 02:46:00,VALID,920,VALID,0,VALID,99.5132,VALID,0,VALID,18.4245,VALID,337,VALID,0,
2002-11-29, 02:47:00,VALID,919.985,VALID,0,VALID,99.5031,VALID,0.0169808,VALID,18.3924,VALID,337,VALID,0,
2002-11-29, 02:48:00,VALID,919.972,VALID,0,VALID,99.484,VALID,0,VALID,18.3507,VALID,336,VALID,0.113839,
2002-11-29, 02:49:00,VALID,919.965,VALID,0,VALID,99.4802,VALID,0,VALID,18.3285,VALID,316,VALID,0.15111,
2002-11-29, 02:50:00,VALID,919.939,VALID,0,VALID,99.5056,VALID,0.0339617,VALID,18.3763,VALID,306,VALID,0.141827,
2002-11-29, 02:51:00,VALID,919.918,VALID,0,VALID,99.5183,VALID,0.0169808,VALID,18.3763,VALID,305,VALID,0.028125,
2002-11-29, 02:52:00,VALID,919.898,VALID,0,VALID,99.5005,VALID,0.0169808,VALID,18.3211,VALID,299,VALID,0.191817,
2002-11-29, 02:53:00,VALID,919.893,VALID,0,VALID,99.5005,VALID,0.0339617,VALID,18.3082,VALID,297,VALID,0.00945724,
2002-11-29, 02:54:00,VALID,919.895,VALID,0,VALID,99.4522,VALID,0,VALID,18.1956,VALID,297,VALID,0.124199,
2002-11-29, 02:55:00,VALID,919.891,VALID,0,VALID,99.4751,VALID,0.0169808,VALID,18.251,VALID,297,VALID,0.136819,
2002-11-29, 02:56:00,VALID,919.897,VALID,0,VALID,99.5018,VALID,0.0169808,VALID,18.2538,VALID,297,VALID,0,
2002-11-29, 02:57:00,VALID,919.897,VALID,0,VALID,99.4903,VALID,0,VALID,18.1603,VALID,297,VALID,0.0994945,
2002-11-29, 02:58:00,VALID,919.902,VALID,0,VALID,99.5018,VALID,0,VALID,18.1827,VALID,297,VALID,0.0337891,
2002-11-29, 02:59:00,VALID,919.896,VALID,0,VALID,99.498,VALID,0.0339617,VALID,18.1403,VALID,297,VALID,0.178602,
2002-11-29, 03:00:00,VALID,919.901,VALID,0,VALID,99.5387,VALID,0,VALID,18.2376,VALID,297,VALID,0.289497,
2002-11-29, 03:01:00,VALID,919.896,VALID,0,VALID,99.5654,VALID,0.0169808,VALID,18.3412,VALID,297,VALID,0.431588,
2002-11-29, 03:02:00,VALID,919.887,VALID,0,VALID,99.6035,VALID,0,VALID,18.4282,VALID,297,VALID,0.204975,
2002-11-29, 03:03:00,VALID,919.907,VALID,0,VALID,99.6162,VALID,0.0339617,VALID,18.4443,VALID,297,VALID,0.0078125,
2002-11-29, 03:04:00,VALID,919.933,VALID,0,VALID,99.6188,VALID,0.0169808,VALID,18.3829,VALID,297,VALID,0.0147804,
2002-11-29, 03:05:00,VALID,919.927,VALID,0,VALID,99.6124,VALID,0.0169808,VALID,18.4056,VALID,297,VALID,0.154297,
2002-11-29, 03:06:00,VALID,919.922,VALID,0,VALID,99.6188,VALID,0.0169808,VALID,18.4409,VALID,297,VALID,0.0102796,
2002-11-29, 03:07:00,VALID,919.899,VALID,0,VALID,99.6226,VALID,0.0169808,VALID,18.4736,VALID,297,VALID,0.0413851,
2002-11-29, 03:08:00,VALID,919.889,VALID,0,VALID,99.6328,VALID,0,VALID,18.4798,VALID,297,VALID,0,
2002-11-29, 03:09:00,VALID,919.873,VALID,0,VALID,99.6378,VALID,0,VALID,18.4766,VALID,297,VALID,0,
2002-11-29, 03:10:00,VALID,919.85,VALID,0,VALID,99.634,VALID,0,VALID,18.4732,VALID,297,VALID,0.020148,
2002-11-29, 03:11:00,VALID,919.828,VALID,0,VALID,99.6289,VALID,0,VALID,18.4932,VALID,297,VALID,0.0365287,
2002-11-29, 03:12:00,VALID,919.805,VALID,0,VALID,99.634,VALID,0,VALID,18.4863,VALID,297,VALID,0.0224609,
2002-11-29, 03:13:00,VALID,919.782,VALID,0,VALID,99.6378,VALID,0.0339617,VALID,18.4796,VALID,297,VALID,0.0207648,
2002-11-29, 03:14:00,VALID,919.767,VALID,0,VALID,99.6353,VALID,0.0169808,VALID,18.4667,VALID,297,VALID,0,
2002-11-29, 03:15:00,VALID,919.763,VALID,0,VALID,99.6302,VALID,0.0339617,VALID,18.4674,VALID,297,VALID,0,
2002-11-29, 03:16:00,VALID,919.757,VALID,0,VALID,99.6264,VALID,0,VALID,18.451,VALID,297,VALID,0,
2002-11-29, 03:17:00,VALID,919.741,VALID,0,VALID,99.62,VALID,0,VALID,18.4185,VALID,297,VALID,0,
2002-11-29, 03:18:00,VALID,919.768,VALID,0,VALID,99.615,VALID,0,VALID,18.3896,VALID,297,VALID,0,
2002-11-29, 03:19:00,VALID,919.765,VALID,0,VALID,99.6124,VALID,0,VALID,18.3834,VALID,297,VALID,0,
2002-11-29, 03:20:00,VALID,919.755,VALID,0,VALID,99.6073,VALID,0.0169808,VALID,18.3546,VALID,297,VALID,0,
2002-11-29, 03:21:00,VALID,919.744,VALID,0,VALID,99.5883,VALID,0,VALID,18.2764,VALID,297,VALID,0,
2002-11-29, 03:22:00,VALID,919.74,VALID,0,VALID,99.5234,VALID,-0.0169808,VALID,18.1123,VALID,297,VALID,0,
2002-11-29, 03:23:00,VALID,919.719,VALID,0,VALID,99.428,VALID,0.0169808,VALID,17.9112,VALID,297,VALID,0,
2002-11-29, 03:24:00,VALID,919.72,VALID,0,VALID,99.3975,VALID,0.0169808,VALID,17.8277,VALID,297,VALID,0,
2002-11-29, 03:25:00,VALID,919.725,VALID,0,VALID,99.4242,VALID,0,VALID,17.7622,VALID,297,VALID,0,
2002-11-29, 03:26:00,VALID,919.716,VALID,0,VALID,99.4382,VALID,0,VALID,17.7179,VALID,297,VALID,0,
2002-11-29, 03:27:00,VALID,919.716,VALID,0,VALID,99.4535,VALID,0,VALID,17.6761,VALID,297,VALID,0,
2002-11-29, 03:28:00,VALID,919.718,VALID,0,VALID,99.4992,VALID,0,VALID,17.6697,VALID,297,VALID,0,
2002-11-29, 03:29:00,VALID,919.723,VALID,0,VALID,99.5425,VALID,0,VALID,17.6626,VALID,297,VALID,0,
2002-11-29, 03:30:00,VALID,919.748,VALID,0,VALID,99.5501,VALID,0,VALID,17.6662,VALID,300,VALID,0.124199,
2002-11-29, 03:31:00,VALID,919.76,VALID,0,VALID,99.5425,VALID,0,VALID,17.6049,VALID,27,VALID,0.31273,
2002-11-29, 03:32:00,VALID,919.772,VALID,0,VALID,99.517,VALID,0,VALID,17.5403,VALID,28,VALID,0.269326,
2002-11-29, 03:33:00,VALID,919.782,VALID,0,VALID,99.5081,VALID,0.0509425,VALID,17.4916,VALID,28,VALID,0.265625,
2002-11-29, 03:34:00,VALID,919.782,VALID,0,VALID,99.5234,VALID,0.0339617,VALID,17.4697,VALID,28,VALID,0.195747,
2002-11-29, 03:35:00,VALID,919.793,VALID,0,VALID,99.5437,VALID,0.0339617,VALID,17.4529,VALID,28,VALID,0.207465,
2002-11-29, 03:36:00,VALID,919.805,VALID,0,VALID,99.5679,VALID,0,VALID,17.4335,VALID,28,VALID,0.175987,
2002-11-29, 03:37:00,VALID,919.808,VALID,0,VALID,99.5577,VALID,0,VALID,17.3985,VALID,28,VALID,0.00822368,
2002-11-29, 03:38:00,VALID,919.819,VALID,0,VALID,99.5527,VALID,0,VALID,17.353,VALID,28,VALID,0,